Wind_Speed
3 6 7 13 20 32 27 21 25 20 15 13 16 16 17 17 19 23 27 35 35 32 33 31 35 38 43 45 44 45 52 61 67 70 61 59 64 55 55 59 61 56 53
2 6 5 14 20 30 30 22 22 26 22 18 15 13 13 17 17 25 30 37 35 37 29 29 31 34 35 39 38 45 55 55 70 67 51 59 49 45 62 56 54 52 48
4 7 5 9 17 24 34 20 17 24 24 24 15 13 10 16 18 20 25 36 33 38 33 27 30 31 33 32 30 41 49 59 54 65 51 59 49 49 53 52 51 54 50
4 8 2 4 10 17 23 35 20 15 21 25 23 15 12 13 14 19 22 41 38 29 34 32 32 30 29 38 35 32 39 49 64 55 51 55 52 48 44 42 37 48 60
5 8 5 1 5 13 19 25 31 19 16 20 21 18 13 11 14 14 20 26 40 33 36 33 29 31 29 26 33 33 29 38 60 60 52 50 50 45 40 40 48 48 47
4 3 7 5 2 9 14 18 26 24 18 16 18 17 11 10 15 18 19 21 39 39 32 31 33 27 25 26 22 27 27 31 49 50 54 50 44 50 43 44 50 51 50
6 3 4 6 2 3 8 13 19 24 23 18 19 16 14 12 11 19 21 24 36 42 35 31 30 28 31 29 26 26 27 25 26 35 40 54 49 46 47 50 48 48 52
10 6 3 7 5 1 4 9 12 19 22 23 20 20 21 17 16 19 21 20 23 36 32 26 23 25 31 31 31 29 27 30 29 35 36 45 51 46 46 48 50 54 56
12 14 9 5 4 3 1 4 7 14 17 20 21 23 26 27 23 23 22 20 19 25 30 23 16 17 15 21 22 26 26 27 23 31 47 40 42 39 42 46 49 51 54
10 13 14 12 7 2 2 1 4 9 11 13 19 19 20 23 20 18 20 23 20 18 24 25 24 24 20 20 21 22 22 20 21 23 25 28 37 45 37 37 38 35 39
9 11 12 14 14 11 7 5 4 7 9 11 12 14 14 15 17 16 14 13 12 14 14 14 11 13 10 13 16 21 25 24 23 16 17 19 21 23 31 35 39 39 40
10 9 11 11 12 12 12 11 9 9 10 11 10 11 11 12 13 13 11 9 10 13 13 14 13 12 13 14 16 17 20 21 17 21 25 25 28 34 35 38 41 45 49
8 7 9 10 10 10 9 9 9 8 7 8 10 11 10 13 12 13 14 13 12 13 16 17 17 18 16 18 18 19 20 24 26 29 26 33 36 37 39 42 45 51 57
10 7 5 7 7 8 9 8 6 5 5 4 3 6 10 11 11 10 12 15 16 18 17 18 18 20 21 22 25 24 24 26 29 30 33 34 39 44 49 54 57 55 55
11 11 8 4 2 3 5 6 5 5 3 2 1 3 5 8 11 12 17 17 17 18 20 23 25 27 28 27 28 30 34 37 37 38 42 45 46 45 45 46 48 49 49
9 10 11 11 7 3 4 1 3 4 3 2 2 5 6 9 9 11 12 14 17 21 24 26 27 30 32 34 34 37 38 41 42 43 41 40 38 38 39 41 43 44 47
6 8 10 10 10 8 6 5 4 3 4 4 2 2 6 11 13 14 14 15 15 17 18 20 22 24 26 27 29 29 28 29 31 32 34 34 34 35 37 38 40 44 48
5 4 8 11 12 11 10 9 9 8 7 6 6 7 8 8 9 12 14 15 17 16 16 15 16 17 19 21 21 22 22 24 26 29 32 34 35 37 39 43 47 49 53
10 8 11 14 13 13 13 11 9 10 10 10 10 10 11 11 12 12 12 13 15 16 17 17 19 19 20 23 24 24 26 28 29 32 35 38 41 43 46 50 54 55 58
14 13 14 17 13 13 14 14 13 12 13 12 11 12 13 14 15 17 18 18 19 21 22 21 22 22 21 23 27 31 33 35 37 40 42 44 46 49 51 52 55 56 59
22 21 21 17 9 11 13 15 16 16 17 16 15 15 15 15 16 18 20 22 23 24 26 29 30 31 33 35 36 36 38 40 42 43 46 48 50 53 57 59 61 63 61
30 28 26 20 14 12 15 19 20 20 20 19 19 19 15 12 13 15 17 18 19 21 25 29 32 35 38 40 42 44 46 46 46 47 47 51 55 57 60 59 63 62 62
33 37 30 23 21 20 24 26 28 26 25 24 21 21 21 17 17 18 18 22 25 27 27 26 28 31 34 38 41 45 46 48 50 52 54 54 56 57 59 60 62 64 65
35 35 26 27 29 29 28 29 31 32 28 25 24 25 25 26 26 27 27 29 31 31 31 31 30 29 33 38 40 40 39 42 45 47 50 50 49 53 55 58 61 55 62
36 34 38 33 34 39 44 34 37 39 32 31 30 30 31 30 30 31 32 31 35 33 32 31 32 33 39 44 43 39 39 39 44 50 52 45 40 52 50 55 58 58 64
42 37 43 41 40 42 48 48 44 46 51 38 38 35 35 38 38 38 38 41 42 40 40 40 42 47 51 52 54 55 57 57 58 57 60 61 56 53 53 57 61 62 66
Wind_Direction
341 125 62 24 28 20 16 31 31 41 69 92 104 112 115 121 132 139 142 154 151 150 141 150 149 145 154 152 164 171 172 176 176 176 188 189 195 199 203 209 218 229 237
145 147 76 46 35 31 27 43 54 53 62 71 81 106 118 138 144 152 157 161 164 150 152 158 157 139 149 152 165 166 171 178 180 180 186 193 197 211 211 215 223 233 242
121 160 101 68 42 34 30 40 64 61 61 58 68 81 110 146 160 160 165 163 163 166 164 165 153 142 149 149 160 170 168 177 178 184 183 191 197 202 208 218 225 227 237
106 187 120 76 37 26 24 35 45 68 69 66 66 74 93 139 138 169 171 167 165 174 177 182 155 151 156 153 158 166 174 178 175 179 180 187 191 199 208 217 231 234 237
53 205 194 122 20 21 21 27 35 57 72 65 58 64 80 106 152 155 176 176 176 175 183 174 175 189 168 176 171 172 181 183 185 191 196 199 200 212 219 228 238 235 243
51 186 210 225 21 4 8 24 34 40 57 58 52 46 93 120 138 155 155 170 185 190 189 185 189 186 192 185 188 180 191 192 188 198 202 210 216 220 227 236 239 236 245
42 92 181 211 214 29 24 17 24 32 45 52 42 47 96 102 137 155 146 160 181 196 193 197 199 197 191 195 191 187 183 178 198 211 210 214 219 225 232 241 244 244 252
51 51 210 188 170 166 47 24 20 38 37 44 47 67 91 97 100 143 146 146 166 191 191 198 208 200 203 208 197 199 205 206 216 216 215 220 223 230 238 241 248 252 258
54 56 60 113 185 222 119 70 42 44 46 49 53 71 92 93 98 115 127 129 143 175 182 183 174 191 189 208 217 225 231 235 244 234 225 235 241 259 257 257 257 267 267
56 61 55 55 62 336 285 61 37 39 70 68 60 63 77 91 100 106 113 110 129 151 195 207 213 212 215 212 218 209 226 232 243 249 250 246 251 253 257 263 261 269 269
37 60 62 56 52 53 76 84 74 94 110 116 101 85 88 93 108 106 118 117 141 142 150 155 159 163 183 198 215 225 230 227 226 219 237 246 255 264 257 252 254 263 264
34 44 59 60 61 54 51 66 77 103 119 142 137 129 117 120 120 127 138 154 152 173 192 189 182 191 199 200 203 208 212 224 229 237 238 237 244 258 269 271 270 274 277
36 37 46 53 63 69 72 69 77 91 119 131 154 162 159 159 161 150 153 167 185 195 204 213 222 218 221 224 227 232 243 250 257 251 254 253 263 272 275 275 277 279 281
23 31 43 51 52 64 68 71 73 80 93 110 152 181 192 198 202 204 201 195 198 209 216 220 226 233 242 247 250 253 256 258 257 265 273 276 276 277 276 274 277 279 283
11 24 20 20 57 63 48 47 54 57 54 5 14 211 220 228 226 225 227 229 232 234 234 235 241 245 251 258 261 263 261 262 267 271 270 273 280 279 282 285 285 288 291
347 6 11 8 17 45 39 275 26 23 28 78 210 239 234 228 228 233 239 243 246 245 245 246 249 253 257 259 262 263 268 271 272 274 279 281 284 289 290 291 292 293 293
336 357 351 355 3 15 20 50 45 347 332 330 289 240 239 240 240 239 240 243 246 252 255 257 260 263 268 271 272 276 279 280 283 284 286 288 287 288 290 292 293 294 296
278 326 345 345 344 344 354 2 10 8 340 327 302 283 265 260 257 250 250 254 256 263 267 269 267 263 262 264 267 269 271 276 281 283 284 286 287 288 288 289 293 295 298
255 281 315 322 324 337 334 327 337 338 335 341 322 296 278 275 271 263 255 256 259 259 263 263 264 267 269 272 271 271 275 278 282 287 288 289 291 292 292 294 296 298 299
245 274 318 311 302 308 314 321 322 320 318 324 329 321 301 283 271 270 274 275 279 282 284 282 283 284 283 284 283 285 287 288 288 290 291 292 293 296 300 302 301 298 299
243 257 278 305 289 314 321 317 309 313 315 324 326 316 308 299 294 289 281 278 275 275 280 285 287 288 289 292 293 293 291 290 292 294 294 295 297 301 303 303 305 307 307
244 255 263 286 253 286 315 321 310 302 300 302 309 306 298 301 301 302 303 302 302 299 296 292 291 292 295 295 295 294 293 291 290 290 290 291 295 300 304 306 304 307 307
253 258 257 262 251 271 294 312 317 304 298 295 296 294 298 299 295 301 308 313 311 307 307 303 299 299 303 303 299 296 295 295 296 297 296 295 295 298 298 298 301 304 305
244 249 242 250 267 260 274 301 304 306 298 291 284 283 288 289 293 302 306 311 320 321 312 310 310 311 313 316 311 304 301 298 295 295 296 297 298 295 293 293 295 294 292
247 249 239 248 257 269 281 282 292 296 299 291 286 281 279 282 285 290 293 301 306 309 310 306 303 305 310 317 313 301 299 303 304 302 301 297 291 288 290 287 292 293 295
251 245 250 240 249 266 278 277 279 285 289 298 290 280 278 280 284 284 289 293 292 299 303 304 300 300 306 315 317 315 312 309 304 303 303 299 294 290 290 287 286 289 289
Height
10616 10615 10614 10614 10610 10606 10599 10595 10589 10583 10580 10579 10580 10580 10582 10584 10586 10589 10594 10598 10602 10607 10613 10617 10622 10628 10632 10639 10648 10658 10666 10676 10687 10697 10703 10713 10721 10727 10734 10740 10744 10747 10750
10615 10614 10614 10614 10612 10609 10603 10598 10594 10589 10586 10585 10585 10586 10586 10589 10592 10595 10599 10604 10609 10615 10619 10623 10629 10634 10638 10643 10650 10660 10670 10678 10689 10698 10706 10714 10720 10725 10732 10735 10737 10742 10747
10613 10614 10614 10615 10614 10612 10609 10602 10599 10595 10592 10591 10590 10590 10591 10593 10596 10600 10605 10610 10616 10620 10624 10628 10637 10641 10646 10651 10656 10663 10671 10681 10690 10694 10700 10709 10715 10721 10727 10731 10737 10738 10739
10613 10614 10615 10616 10615 10614 10612 10608 10602 10600 10598 10597 10596 10595 10595 10597 10600 10604 10609 10616 10621 10626 10631 10636 10644 10647 10651 10656 10660 10666 10673 10678 10687 10695 10701 10707 10711 10716 10722 10726 10730 10732 10733
10613 10614 10615 10616 10616 10616 10614 10612 10608 10604 10603 10602 10600 10600 10599 10600 10602 10607 10611 10618 10624 10630 10633 10642 10647 10651 10656 10661 10667 10671 10677 10685 10691 10697 10703 10707 10709 10713 10718 10722 10723 10724 10725
10613 10613 10615 10616 10617 10617 10617 10616 10613 10609 10607 10606 10605 10603 10604 10604 10605 10609 10614 10620 10627 10632 10637 10643 10649 10655 10661 10665 10671 10676 10682 10688 10696 10700 10704 10708 10711 10713 10714 10716 10717 10718 10720
10613 10613 10615 10615 10617 10618 10619 10618 10616 10614 10611 10610 10608 10605 10606 10607 10608 10612 10617 10622 10629 10635 10641 10645 10652 10660 10664 10669 10675 10680 10685 10690 10695 10699 10702 10704 10706 10710 10711 10714 10713 10715 10714
10615 10613 10614 10615 10617 10618 10619 10619 10619 10617 10616 10614 10613 10610 10609 10611 10612 10615 10621 10626 10632 10639 10645 10650 10655 10661 10667 10672 10678 10683 10686 10689 10693 10696 10698 10701 10704 10707 10708 10708 10707 10707 10708
10616 10614 10615 10614 10616 10617 10618 10620 10620 10619 10618 10618 10617 10617 10615 10616 10619 10622 10626 10631 10637 10643 10649 10653 10657 10662 10666 10671 10675 10678 10682 10685 10689 10692 10695 10696 10698 10698 10698 10699 10701 10702 10701
10618 10616 10616 10616 10616 10617 10617 10619 10620 10620 10620 10620 10620 10620 10622 10624 10626 10629 10632 10637 10641 10646 10651 10654 10657 10662 10665 10669 10673 10676 10679 10682 10686 10687 10689 10691 10692 10692 10693 10693 10693 10693 10690
10620 10619 10618 10617 10616 10618 10618 10618 10620 10621 10621 10622 10624 10625 10627 10628 10631 10634 10637 10640 10644 10648 10651 10655 10658 10661 10664 10667 10670 10672 10675 10678 10680 10681 10683 10685 10686 10687 10686 10685 10683 10681 10679
10622 10620 10619 10619 10619 10619 10620 10619 10620 10621 10622 10624 10626 10627 10629 10631 10634 10636 10639 10642 10645 10647 10651 10655 10657 10660 10662 10665 10667 10670 10672 10674 10675 10676 10677 10677 10679 10679 10679 10677 10675 10673 10669
10623 10623 10621 10620 10620 10621 10621 10621 10622 10623 10624 10625 10627 10629 10631 10633 10635 10638 10640 10643 10646 10649 10651 10653 10656 10658 10660 10662 10664 10666 10668 10670 10670 10671 10672 10673 10672 10671 10669 10667 10664 10659 10653
10625 10624 10623 10622 10622 10622 10622 10623 10623 10624 10625 10626 10627 10629 10631 10633 10635 10638 10640 10643 10644 10646 10649 10651 10653 10655 10656 10658 10659 10661 10663 10663 10663 10664 10664 10664 10663 10660 10657 10655 10651 10645 10641
10627 10625 10624 10623 10623 10623 10623 10624 10625 10624 10625 10626 10627 10628 10630 10631 10633 10635 10637 10639 10642 10644 10646 10647 10648 10649 10650 10652 10653 10654 10655 10654 10654 10654 10654 10652 10651 10647 10644 10640 10636 10632 10627
10629 10628 10626 10624 10623 10623 10623 10624 10624 10625 10625 10625 10626 10627 10628 10629 10631 10632 10633 10635 10636 10637 10638 10640 10642 10642 10643 10643 10643 10643 10644 10645 10644 10643 10642 10640 10638 10634 10632 10629 10625 10622 10617
10630 10629 10629 10628 10626 10625 10623 10623 10624 10624 10624 10624 10624 10624 10625 10627 10628 10630 10631 10632 10633 10634 10635 10636 10636 10636 10636 10636 10636 10636 10635 10634 10633 10632 10630 10628 10627 10625 10622 10618 10613 10609 10604
10629 10628 10628 10628 10628 10627 10626 10624 10623 10623 10623 10623 10623 10623 10623 10624 10625 10626 10628 10629 10630 10631 10632 10632 10632 10632 10631 10630 10630 10629 10627 10626 10625 10623 10622 10619 10616 10613 10610 10606 10602 10596 10590
10626 10626 10625 10626 10625 10625 10625 10625 10624 10622 10621 10621 10621 10621 10621 10622 10621 10622 10624 10624 10625 10626 10627 10627 10627 10627 10626 10625 10624 10623 10621 10620 10618 10615 10612 10608 10605 10601 10597 10593 10588 10582 10575
10621 10621 10622 10622 10622 10622 10622 10622 10622 10621 10620 10620 10620 10619 10618 10618 10618 10618 10619 10620 10620 10620 10620 10621 10621 10620 10620 10619 10617 10615 10613 10610 10607 10604 10600 10597 10593 10589 10584 10579 10573 10566 10560
10614 10616 10617 10618 10618 10618 10618 10618 10618 10618 10618 10618 10617 10616 10615 10615 10614 10614 10614 10615 10615 10615 10614 10613 10613 10612 10611 10609 10607 10604 10601 10598 10595 10592 10588 10584 10579 10575 10569 10564 10557 10551 10543
10606 10608 10610 10612 10613 10613 10613 10613 10613 10613 10613 10613 10613 10612 10612 10611 10610 10609 10609 10609 10608 10608 10607 10605 10603 10601 10600 10598 10595 10592 10589 10586 10583 10580 10577 10573 10567 10561 10554 10547 10540 10535 10527
10594 10597 10601 10604 10605 10605 10606 10606 10607 10606 10606 10606 10606 10605 10605 10605 10605 10603 10602 10600 10600 10599 10598 10597 10595 10592 10590 10588 10585 10581 10577 10573 10569 10565 10561 10557 10552 10547 10541 10535 10528 10521 10514
10584 10588 10592 10595 10596 10596 10597 10599 10599 10599 10598 10598 10598 10598 10597 10597 10596 10596 10596 10594 10592 10590 10589 10587 10585 10584 10582 10579 10574 10569 10564 10560 10556 10552 10547 10541 10537 10532 10527 10520 10515 10511 10505
10574 10577 10578 10581 10584 10586 10589 10588 10590 10592 10591 10589 10589 10588 10589 10589 10589 10588 10587 10586 10584 10582 10580 10578 10576 10573 10570 10565 10562 10558 10554 10548 10543 10538 10533 10528 10522 10517 10514 10508 10502 10497 10490
10562 10563 10567 10568 10570 10573 10575 10575 10577 10580 10580 10581 10580 10580 10581 10580 10580 10580 10579 10576 10574 10573 10570 10567 10564 10559 10555 10551 10547 10543 10539 10533 10526 10521 10516 10512 10509 10504 10499 10493 10488 10482 10475